Location: Palomar Mountain Lodge
(33.3110°N, 116.8495°W)
Time: 11:17:19
(UTC-07:00)

LilacSat-2 - Visible Passes

Search period start: 11 April 2026 00:00
Search period end: 21 April 2026 00:00
Orbit: 413 x 425 km, 97.5° (Epoch: 11 April)

Date Brightness Start Highest point End Pass type
(mag) Time Alt. Az. Time Alt. Az. Time Alt. Az.
11 Apr ? 19:50:13 10° SSE 19:53:15 41° ENE 19:56:17 10° N visible
12 Apr ? 20:37:57 10° SSW 20:40:48 29° W 20:43:39 10° NW visible
13 Apr ? 19:53:13 10° SSE 19:56:18 45° ENE 19:59:22 10° N visible
14 Apr ? 20:41:03 10° SSW 20:43:49 27° W 20:46:35 10° NW visible
15 Apr ? 19:56:09 10° SSE 19:59:15 50° ENE 20:02:22 10° N visible
16 Apr ? 20:44:04 10° SSW 20:46:44 24° W 20:49:25 10° NW visible
17 Apr ? 19:58:59 10° SSE 20:02:06 56° ENE 20:05:14 10° N visible
18 Apr ? 20:46:58 10° SSW 20:49:33 22° W 20:52:08 10° NW visible
19 Apr ? 20:01:44 10° SSE 20:04:52 61° ENE 20:08:01 10° N visible
20 Apr ? 20:49:48 10° SSW 20:52:16 21° W 20:54:46 10° NW visible
